GW6644 Weather Reports


time (UTC)temp
C
wind
direction
speed
KPH
gust
KPH
rain 1hr
cm
rain 24hr
cm
rain mn
cm
humidity
%
barometer
mb
20260506081454 13 61 3.2 4.8 0.00 0.00 0.00 77 1008.7
20260506080951 13 55 4.8 4.8 0.00 0.00 0.00 78 1009.0
20260506080448 14 57 4.8 8.0 0.00 0.00 0.00 77 1008.6
20260506073431 14 53 9.7 14.5 0.00 0.00 0.00 77 1008.7
20260506072929 14 41 3.2 3.2 0.00 0.00 0.00 78 1008.6
20260506072426 14 52 4.8 8.0 0.00 0.00 0.00 78 1008.5
20260506071924 14 80 3.2 3.2 0.00 0.00 0.00 79 1008.0
20260506071421 14 68 3.2 3.2 0.00 0.00 0.00 79 1008.3
20260506070918 14 60 1.6 1.6 0.00 0.00 0.00 79 1008.5
20260506070415 14 18 6.4 9.7 0.00 0.00 0.00 80 1008.5
20260506062352 15 63 9.7 12.9 0.00 0.00 0.00 80 1008.4
20260506061848 15 32 9.7 11.3 0.00 0.00 0.00 80 1008.4
20260506061345 15 34 8.0 9.7 0.00 0.00 0.00 80 1008.5
20260506060843 15 52 4.8 9.7 0.00 0.00 0.00 80 1008.4
20260506060341 15 356 8.0 11.3 0.00 0.00 0.00 80 1008.5
20260506051313 15 61 8.0 12.9 0.00 0.00 0.00 79 1008.6
20260506050810 16 50 9.7 11.3 0.00 0.00 0.00 79 1008.6
20260506050308 16 69 6.4 9.7 0.00 0.00 0.00 79 1008.7
20260506044758 16 67 9.7 14.5 0.00 0.00 0.00 79 1008.2
20260506044255 16 45 8.0 11.3 0.00 0.00 0.00 78 1008.3
20260506043752 16 60 11.3 14.5 0.00 0.00 0.00 78 1008.3
20260506043250 16 62 4.8 4.8 0.00 0.00 0.00 78 1008.1
20260506042749 16 52 12.9 16.1 0.00 0.00 0.00 78 1008.3
20260506042247 16 51 9.7 14.5 0.00 0.00 0.00 77 1008.4
20260506041745 16 35 11.3 14.5 0.00 0.00 0.00 77 1008.3
20260506041241 16 22 12.9 14.5 0.00 0.00 0.00 77 1008.3
20260506040739 17 73 11.3 16.1 0.00 0.00 0.00 77 1008.4
20260506040236 17 56 8.0 11.3 0.00 0.00 0.00 77 1008.4
20260506035733 17 77 6.4 9.7 0.00 0.00 0.00 77 1008.2
20260506035230 17 13 6.4 12.9 0.00 0.00 0.00 77 1008.0
20260506034726 17 62 1.6 3.2 0.00 0.00 0.00 77 1007.8
20260506034224 17 29 11.3 14.5 0.00 0.00 0.00 77 1007.9
20260506033721 17 29 9.7 12.9 0.00 0.00 0.00 77 1007.9
20260506033218 17 62 8.0 9.7 0.00 0.00 0.00 77 1007.7
20260506032715 17 76 4.8 9.7 0.00 0.00 0.00 76 1007.6
20260506032212 18 34 6.4 14.5 0.00 0.00 0.00 76 1007.4
20260506031708 18 85 8.0 14.5 0.00 0.00 0.00 75 1007.3
20260506031206 18 52 8.0 12.9 0.00 0.00 0.00 75 1007.0
20260506030704 18 54 12.9 16.1 0.00 0.00 0.00 74 1007.2
20260506030201 18 353 6.4 8.0 0.00 0.00 0.00 74 1006.9
20260506025658 18 48 6.4 8.0 0.00 0.00 0.00 73 1007.2
20260506025154 18 59 6.4 11.3 0.00 0.00 0.00 73 1006.9
20260506024651 18 60 11.3 16.1 0.00 0.00 0.00 73 1006.7
20260506024148 19 80 8.0 16.1 0.00 0.00 0.00 72 1006.7
20260506023644 19 53 12.9 16.1 0.00 0.00 0.00 72 1006.7
20260506023141 19 45 3.2 8.0 0.00 0.00 0.00 72 1006.5
20260506022638 19 60 8.0 12.9 0.00 0.00 0.00 72 1006.2
20260506022136 19 49 8.0 16.1 0.00 0.00 0.00 71 1006.5
20260506021634 19 54 8.0 12.9 0.00 0.00 0.00 71 1006.2
20260506021130 20 68 6.4 11.3 0.00 0.00 0.00 70 1006.0
20260506020627 20 50 3.2 3.2 0.00 0.00 0.00 70 1006.0
20260506020125 20 51 9.7 11.3 0.00 0.00 0.00 69 1006.0
20260506015622 20 52 11.3 14.5 0.00 0.00 0.00 69 1006.0
20260506015119 20 82 4.8 8.0 0.00 0.00 0.00 70 1005.8
20260506014617 20 54 4.8 4.8 0.00 0.00 0.00 71 1005.6
20260506014112 20 59 14.5 16.1 0.00 0.00 0.00 70 1005.3
20260506013611 20 61 8.0 12.9 0.00 0.00 0.00 71 1005.3
20260506013107 20 43 14.5 16.1 0.00 0.00 0.00 71 1005.6
20260506012603 21 55 16.1 17.7 0.00 0.00 0.00 70 1005.2
20260506012100 21 56 9.7 12.9 0.00 0.00 0.00 70 1005.1
20260506011558 21 65 3.2 3.2 0.00 0.00 0.00 70 1004.9
20260506011054 21 35 6.4 12.9 0.00 0.00 0.00 70 1004.9
20260506010554 21 31 11.3 16.1 0.00 0.00 0.00 70 1004.8
20260506010050 21 30 4.8 8.0 0.00 0.00 0.00 69 1004.6
20260506005547 22 52 9.7 12.9 0.00 0.00 0.00 69 1004.4
20260506005043 22 74 11.3 14.5 0.00 0.00 0.00 68 1004.1
20260506004540 22 70 11.3 14.5 0.00 0.00 0.00 68 1004.2
20260506004037 22 53 11.3 16.1 0.00 0.00 0.00 68 1004.4
20260506003533 22 84 6.4 8.0 0.00 0.00 0.00 67 1004.2
20260506003030 22 52 8.0 9.7 0.00 0.00 0.00 67 1004.0
20260506002526 22 34 6.4 8.0 0.00 0.00 0.00 67 1003.9
20260506002021 23 44 11.3 17.7 0.00 0.00 0.00 67 1004.2
20260506001518 23 21 4.8 8.0 0.00 0.00 0.00 67 1004.1
20260506001015 23 54 8.0 16.1 0.00 0.00 0.00 65 1003.6
20260506000513 24 59 12.9 17.7 0.00 0.00 0.00 63 1003.7
20260506000010 24 49 1.6 3.2 0.00 0.00 0.00 63 1003.7
20260505235508 24 73 6.4 9.7 0.00 0.00 0.00 62 1003.5
20260505235004 24 87 8.0 12.9 0.00 0.00 0.00 62 1003.5
20260505234502 25 53 4.8 8.0 0.00 0.00 0.00 62 1003.7
20260505233958 25 52 4.8 4.8 0.00 0.00 0.00 61 1003.6
20260505233456 25 70 8.0 12.9 0.00 0.00 0.00 60 1003.6
20260505232953 25 56 9.7 16.1 0.00 0.00 0.00 60 1003.6
20260505232451 25 28 8.0 11.3 0.00 0.00 0.00 60 1003.4
20260505231948 25 63 4.8 8.0 0.00 0.00 0.00 59 1003.6
20260505231445 26 77 1.6 1.6 0.00 0.00 0.00 58 1003.6
20260505230943 26 69 6.4 9.7 0.00 0.00 0.00 58 1003.5
20260505230441 26 43 8.0 11.3 0.00 0.00 0.00 58 1003.1
20260505225937 26 11 6.4 11.3 0.00 0.00 0.00 57 1003.2
20260505225434 27 66 4.8 8.0 0.00 0.00 0.00 58 1003.4
20260505224930 27 95 1.6 3.2 0.00 0.00 0.00 57 1003.2
20260505224427 27 84 6.4 9.7 0.00 0.00 0.00 57 1002.9
20260505223924 27 40 4.8 8.0 0.00 0.00 0.00 57 1002.9
20260505223421 28 64 1.6 1.6 0.00 0.00 0.00 58 1002.9
20260505222917 28 41 8.0 9.7 0.00 0.00 0.00 57 1002.7
20260505222414 28 60 6.4 11.3 0.00 0.00 0.00 55 1002.5
20260505221910 29 96 1.6 1.6 0.00 0.00 0.00 52 1002.7
20260505221407 30 27 4.8 4.8 0.00 0.00 0.00 48 1002.4
20260505220904 30 344 0.0 1.6 0.00 0.00 0.00 47 1002.3
20260505220401 30 50 4.8 9.7 0.00 0.00 0.00 46 1002.5
20260505215859 30 71 4.8 8.0 0.00 0.00 0.00 45 1002.2
20260505215357 30 45 4.8 8.0 0.00 0.00 0.00 44 1002.4
20260505214854 30 32 3.2 4.8 0.00 0.00 0.00 45 1002.3
20260505214352 29 60 4.8 8.0 0.00 0.00 0.00 46 1002.4
20260505213849 30 43 3.2 3.2 0.00 0.00 0.00 45 1002.5
20260505213347 30 82 1.6 3.2 0.00 0.00 0.00 46 1002.4
20260505212842 31 5 9.7 11.3 0.00 0.00 0.00 45 1002.3
20260505212339 32 77 4.8 9.7 0.00 0.00 0.00 44 1002.5
20260505211835 32 191 1.6 3.2 0.00 0.00 0.00 47 1002.5
20260505211334 32 190 0.0 1.6 0.00 0.00 0.00 46 1002.4
20260505210830 33 88 1.6 1.6 0.00 0.00 0.00 45 1002.5
20260505210327 33 177 0.0 1.6 0.00 0.00 0.00 45 1002.7
20260505205823 33 156 0.0 1.6 0.00 0.00 0.00 45 1002.9
20260505205322 33 154 0.0 0.0 0.00 0.00 0.00 46 1002.6
20260505204818 33 158 0.0 0.0 0.00 0.00 0.00 47 1002.9
20260505204316 32 154 1.6 1.6 0.00 0.00 0.00 48 1002.9
20260505203814 33 269 1.6 4.8 0.00 0.00 0.00 47 1003.0
20260505203310 32 192 0.0 3.2 0.00 0.00 0.00 48 1003.0
20260505202806 32 135 1.6 1.6 0.00 0.00 0.00 49 1003.1
20260505202306 32 229 3.2 4.8 0.00 0.00 0.00 47 1003.2
20260505201759 32 175 0.0 0.0 0.00 0.00 0.00 48 1003.1
20260505201257 32 185 1.6 1.6 0.00 0.00 0.00 48 1003.3
20260505200755 32 215 3.2 3.2 0.00 0.00 0.00 46 1003.2
20260505200252 32 163 1.6 1.6 0.00 0.00 0.00 49 1003.2
20260505195747 32 164 1.6 3.2 0.00 0.00 0.00 50 1003.5
20260505195245 32 105 3.2 3.2 0.00 0.00 0.00 50 1003.3
20260505194742 31 176 1.6 1.6 0.00 0.00 0.00 54 1003.2
20260505194238 31 154 3.2 4.8 0.00 0.00 0.00 56 1003.4
20260505193734 31 289 8.0 11.3 0.00 0.00 0.00 55 1003.4
20260505193232 31 206 8.0 9.7 0.00 0.00 0.00 53 1003.3
20260505192730 31 279 4.8 8.0 0.00 0.00 0.00 55 1003.2
20260505192227 31 196 3.2 3.2 0.00 0.00 0.00 57 1003.4
20260505191725 31 200 8.0 12.9 0.00 0.00 0.00 55 1003.3
20260505191224 30 198 3.2 4.8 0.00 0.00 0.00 56 1003.2
20260505190719 30 193 4.8 4.8 0.00 0.00 0.00 57 1003.2
20260505190219 30 211 8.0 16.1 0.00 0.00 0.00 56 1003.2
20260505185716 30 214 3.2 3.2 0.00 0.00 0.00 58 1003.3
20260505185212 30 243 4.8 8.0 0.00 0.00 0.00 59 1003.3
20260505184708 30 256 1.6 4.8 0.00 0.00 0.00 59 1003.1
20260505184206 29 234 4.8 8.0 0.00 0.00 0.00 59 1003.3
20260505183703 29 159 1.6 1.6 0.00 0.00 0.00 60 1003.3
20260505183200 29 202 3.2 3.2 0.00 0.00 0.00 61 1003.5
20260505182656 29 205 4.8 8.0 0.00 0.00 0.00 62 1003.4
20260505182154 28 214 3.2 3.2 0.00 0.00 0.00 63 1003.6
20260505181650 28 227 4.8 8.0 0.00 0.00 0.00 64 1003.6
20260505181148 28 268 4.8 8.0 0.00 0.00 0.00 64 1003.5
20260505180643 28 100 3.2 3.2 0.00 0.00 0.00 64 1003.6
20260505180141 28 180 1.6 3.2 0.00 0.00 0.00 66 1003.6
20260505175637 28 188 4.8 8.0 0.00 0.00 0.00 64 1003.7
20260505175133 28 180 1.6 1.6 0.00 0.00 0.00 66 1003.6
20260505174630 27 198 6.4 11.3 0.00 0.00 0.00 66 1003.5
20260505174126 27 237 11.3 14.5 0.00 0.00 0.00 65 1003.4
20260505173623 27 285 3.2 3.2 0.00 0.00 0.00 67 1003.4
20260505173120 27 225 4.8 12.9 0.00 0.00 0.00 67 1003.4
20260505172618 27 231 9.7 14.5 0.00 0.00 0.00 66 1003.7
20260505172114 28 298 11.3 20.9 0.00 0.00 0.00 65 1003.7
20260505171608 28 162 1.6 3.2 0.00 0.00 0.00 65 1003.3
20260505171106 28 251 3.2 3.2 0.00 0.00 0.00 67 1003.5
20260505170603 27 168 4.8 8.0 0.00 0.00 0.00 68 1003.5
20260505170059 27 192 6.4 9.7 0.00 0.00 0.00 66 1003.6
20260505165554 28 124 3.2 4.8 0.00 0.00 0.00 66 1003.6
20260505165050 27 227 4.8 11.3 0.00 0.00 0.00 67 1003.6
20260505164546 27 232 8.0 11.3 0.00 0.00 0.00 67 1003.5
20260505164044 27 210 12.9 17.7 0.00 0.00 0.00 66 1003.3
20260505163543 27 226 9.7 11.3 0.00 0.00 0.00 68 1003.6
20260505163039 27 217 12.9 17.7 0.00 0.00 0.00 67 1003.4
20260505162538 27 239 9.7 16.1 0.00 0.00 0.00 68 1003.4
20260505162035 26 222 11.3 14.5 0.00 0.00 0.00 70 1003.5
20260505161532 26 209 3.2 3.2 0.00 0.00 0.00 71 1003.7
20260505161029 26 227 11.3 16.1 0.00 0.00 0.00 71 1003.4
20260505160527 26 154 9.7 14.5 0.00 0.00 0.00 72 1003.5
20260505153003 25 228 3.2 4.8 0.00 0.00 0.00 76 1003.2
20260505152500 24 44 9.7 14.5 0.00 0.00 0.00 77 1003.1
20260505151955 23 217 6.4 11.3 0.00 0.00 0.00 77 1003.1
20260505151451 24 202 12.9 20.9 0.00 0.00 0.00 77 1003.3
20260505150949 23 122 3.2 4.8 0.00 0.00 0.00 78 1003.2
20260505150445 23 274 9.7 12.9 0.00 0.00 0.00 78 1003.1
20260505140415 22 132 4.8 8.0 0.00 0.00 0.00 81 1003.1
20260505124829 21 203 4.8 8.0 0.00 0.00 0.00 86 1002.7
20260505124326 21 212 8.0 12.9 0.00 0.00 0.00 86 1002.6
20260505123822 21 284 11.3 16.1 0.00 0.00 0.00 86 1002.6
20260505123319 21 191 6.4 9.7 0.00 0.00 0.00 86 1002.5
20260505122815 21 242 8.0 12.9 0.00 0.00 0.00 86 1002.3
20260505122312 21 243 3.2 3.2 0.00 0.00 0.00 87 1002.2
20260505121809 21 225 11.3 14.5 0.00 0.00 0.00 87 1002.4
20260505121306 21 205 8.0 11.3 0.00 0.00 0.00 87 1002.2
20260505120802 21 204 6.4 11.3 0.00 0.00 0.00 87 1002.4
20260505120258 21 213 6.4 8.0 0.00 0.00 0.00 87 1002.4
20260505115756 21 251 3.2 3.2 0.00 0.00 0.00 87 1002.0
20260505115254 21 228 11.3 16.1 0.00 0.00 0.00 87 1002.2
20260505114751 21 282 6.4 8.0 0.00 0.00 0.00 87 1002.2
20260505114247 20 257 8.0 9.7 0.00 0.00 0.00 87 1002.2
20260505113744 20 242 4.8 9.7 0.00 0.00 0.00 87 1002.1
20260505113241 20 233 8.0 12.9 0.00 0.00 0.00 87 1002.1
20260505112737 20 189 9.7 12.9 0.00 0.00 0.00 87 1002.2
20260505112235 20 213 8.0 9.7 0.00 0.00 0.00 88 1002.0
20260505111735 20 186 8.0 11.3 0.00 0.00 0.00 88 1002.3
20260505111231 20 190 6.4 9.7 0.00 0.00 0.00 88 1002.0
20260505110727 20 215 9.7 14.5 0.00 0.00 0.00 88 1002.2
20260505110225 20 268 4.8 11.3 0.00 0.00 0.00 88 1002.1
20260505102159 20 202 3.2 4.8 0.00 0.00 0.00 88 1002.0
20260505101659 20 211 8.0 11.3 0.00 0.00 0.00 88 1002.2
20260505101154 20 205 4.8 4.8 0.00 0.00 0.00 88 1002.0
20260505100650 20 203 6.4 9.7 0.00 0.00 0.00 88 1002.1
20260505100148 20 210 9.7 12.9 0.00 0.00 0.00 88 1002.1
20260505095643 20 207 11.3 17.7 0.00 0.00 0.00 88 1002.1
20260505095141 20 197 6.4 8.0 0.00 0.00 0.00 87 1002.2
20260505094637 20 242 12.9 17.7 0.00 0.00 0.00 87 1002.2
20260505094133 20 197 11.3 16.1 0.00 0.00 0.00 87 1002.1
20260505093630 20 182 9.7 12.9 0.00 0.00 0.00 87 1001.9
20260505093127 20 191 11.3 14.5 0.00 0.00 0.00 87 1002.0
20260505092624 20 219 9.7 16.1 0.00 0.00 0.00 87 1002.1
20260505092123 20 165 6.4 9.7 0.00 0.00 0.00 86 1002.2
20260505091619 21 216 9.7 12.9 0.00 0.00 0.00 86 1002.4
20260505091118 21 246 8.0 11.3 0.00 0.00 0.00 86 1002.1
20260505090615 21 203 4.8 4.8 0.00 0.00 0.00 86 1002.3
20260505090113 21 239 8.0 12.9 0.00 0.00 0.00 85 1002.2
20260505085610 21 219 9.7 16.1 0.00 0.00 0.00 85 1002.4
20260505085109 21 207 9.7 14.5 0.00 0.00 0.00 85 1002.7
20260505084606 21 248 6.4 8.0 0.00 0.00 0.00 84 1002.5
20260505084104 21 212 8.0 11.3 0.00 0.00 0.00 84 1002.4
20260505083601 21 239 12.9 20.9 0.00 0.00 0.00 84 1002.7
20260505083057 21 231 3.2 3.2 0.00 0.00 0.00 83 1002.5
20260505082553 21 223 9.7 11.3 0.00 0.00 0.00 83 1002.4
20260505082051 21 172 6.4 9.7 0.00 0.00 0.00 82 1002.6